Weather History for Milton, FL

Change the Weather History Date:

Sunday, October 14, 2012

  Actual Average (KNSE) Record (KNSE)
Temperature  
Mean Temperature 74 °F -  
Max Temperature 84 °F 76 °F 86 °F (2012)
Min Temperature 64 °F 56 °F 53 °F (1996)
Cooling Degree Days 9    
Growing Degree Days 24 (Base 50)    
Moisture  
Dew Point 66 °F    
Average Humidity 82    
Maximum Humidity 96    
Minimum Humidity 55    
Precipitation  
Precipitation 0.00 in - - ()
Sea Level Pressure  
Sea Level Pressure 30.05 in    
Wind  
Wind Speed 5 mph (ESE)    
Max Wind Speed 8 mph    
Max Gust Speed -    
Visibility 8 miles    
Events Fog    
Averages and records for this station are not official NWS values.
T = Trace of Precipitation, MM = Missing Value Source: NWS Daily Summary

Daily Weather History Graph

Daily Weather History Graph

Search for Another Location

Airport:

Trip Planner

Search our weather history database for the weather conditions in past years. The results will help you decide how hot, cold, wet, or windy it might be!

Date:

Astronomy

Oct. 14, 2012 Rise Set
Actual Time 6:50 AM CDT 6:17 PM CDT
Civil Twilight 6:25 AM CDT 6:41 PM CDT
Nautical Twilight 5:57 AM CDT 7:09 PM CDT
Astronomical Twilight 5:29 AM CDT 7:37 PM CDT
Moon 5:50 AM CDT (10/14) 5:37 PM CDT (10/14)
Length of Visible Light 12h 15m
Length of Day
11h 27m
Waning Crescent, 1% of the Moon is Illuminated
Oct 14
Waning Crescent
Oct 15
New
Oct 21
First Quarter
Oct 29
Full
Nov 6
Last Quarter

Hourly Weather History & Observations

Time (CDT) Temp. Heat Index Dew Point Humidity Pressure Visibility Wind Dir Wind Speed Gust Speed Precip Events Conditions
12:56 AM 69.1 °F - 66.0 °F 90% 30.11 in 10.0 mi ENE 5.8 mph - N/A   Clear
1:56 AM 69.1 °F - 64.9 °F 87% 30.09 in 10.0 mi ESE 5.8 mph - N/A   Clear
2:56 AM 68.0 °F - 63.0 °F 84% 30.08 in 10.0 mi ESE 6.9 mph - N/A   Clear
3:56 AM 66.9 °F - 62.1 °F 84% 30.07 in 10.0 mi East 5.8 mph - N/A   Clear
4:56 AM 66.0 °F - 62.1 °F 87% 30.06 in 10.0 mi East 8.1 mph - N/A   Clear
5:56 AM 66.0 °F - 62.1 °F 87% 30.07 in 10.0 mi ESE 5.8 mph - N/A   Clear
6:56 AM 64.9 °F - 63.0 °F 93% 30.08 in 10.0 mi Calm Calm - N/A   Clear
7:11 AM 64.4 °F - 62.6 °F 94% 30.12 in 10.0 mi NE 3.5 mph - N/A   Partly Cloudy
7:56 AM 68.0 °F - 64.9 °F 90% 30.09 in 10.0 mi East 4.6 mph - N/A   Clear
8:56 AM 72.0 °F - 66.0 °F 81% 30.10 in 10.0 mi East 8.1 mph - N/A   Clear
9:56 AM 77.0 °F - 68.0 °F 74% 30.12 in 10.0 mi SE 6.9 mph - N/A   Clear
10:32 AM 78.8 °F - 68.0 °F 69% 30.17 in 10.0 mi ESE 6.9 mph - N/A   Mostly Cloudy
10:56 AM 78.1 °F - 68.0 °F 71% 30.13 in 10.0 mi ESE 5.8 mph - N/A   Mostly Cloudy
11:13 AM 80.6 °F 83.9 °F 69.8 °F 70% 30.16 in 10.0 mi East 5.8 mph - N/A   Mostly Cloudy
11:56 AM 81.0 °F 83.8 °F 68.0 °F 65% 30.11 in 10.0 mi ESE 5.8 mph - N/A   Mostly Cloudy
12:56 PM 81.0 °F 83.3 °F 66.9 °F 62% 30.09 in 10.0 mi South 4.6 mph - N/A   Scattered Clouds
1:56 PM 84.0 °F 86.5 °F 66.9 °F 56% 30.05 in 10.0 mi South 8.1 mph - N/A   Scattered Clouds
2:56 PM 84.0 °F 86.3 °F 66.0 °F 55% 30.02 in 10.0 mi SSE 5.8 mph - N/A   Clear
3:56 PM 79.0 °F - 66.9 °F 66% 30.01 in 10.0 mi WSW 3.5 mph - N/A   Partly Cloudy
4:56 PM 79.0 °F - 69.1 °F 72% 29.99 in 10.0 mi South 6.9 mph - N/A   Clear
5:56 PM 77.0 °F - 69.1 °F 76% 29.99 in 10.0 mi South 6.9 mph - N/A   Clear
6:56 PM 73.9 °F - 69.1 °F 85% 29.97 in 10.0 mi SSE 6.9 mph - N/A   Clear
7:56 PM 72.0 °F - 69.1 °F 91% 29.99 in 10.0 mi Calm Calm - N/A   Clear
8:56 PM 71.1 °F - 69.1 °F 93% 29.99 in 10.0 mi Calm Calm - N/A   Clear
9:56 PM 69.1 °F - 66.9 °F 93% 29.99 in 8.0 mi Calm Calm - N/A   Clear
10:53 PM 69.8 °F - 68.0 °F 94% 30.03 in 1.8 mi Calm Calm - N/A   Clear
10:56 PM 69.1 °F - 66.9 °F 93% 29.99 in 1.2 mi Calm Calm - N/A   Clear
11:14 PM 68.0 °F - 66.2 °F 94% 30.03 in 0.8 mi Calm Calm - N/A   Mist
11:25 PM 69.8 °F - 66.2 °F 88% 30.02 in 0.8 mi Calm Calm - N/A   Clear
11:28 PM 69.8 °F - 68.0 °F 94% 30.02 in 0.8 mi Calm Calm - N/A   Mist
11:49 PM 68.0 °F - 66.2 °F 94% 30.02 in 0.5 mi Calm Calm - N/A Fog Fog
11:56 PM 66.0 °F - 64.9 °F 96% 29.98 in 0.8 mi Calm Calm - N/A   Mist